Location: Lafig�re
(44.4503°N, 4.0357°E)
Time: 17:06:26
(UTC+00:00)

S-56A Canister/Altair - Pass Details

Date: 24 January 2021
Orbit: 631 x 2501 km, 38.9° (Epoch: 04 March)

Event Time Altitude Azimuth Distance (km) Brightness Sun altitude
Rises 00:59:56 0° 210° (SSW) 3,213 - -61.4°
Reaches altitude 10° 01:03:29 10° 187° (S) 2,111 - -61.1°
Maximum altitude 01:06:04 15° 152° (SSE) 1,740 - -60.8°
Drops below altitude 10° 01:08:33 10° 118° (ESE) 2,004 - -60.6°
Sets 01:11:45 0° 93° (E) 2,946 - -60.2°
